Stations météo

Publicité
Bezier-Vias, France (7638): Température de l'air & dewpoint: 22.05.2018 11:00:00 - 28.05.2018 11:00:00 (CEST)Bezier-Vias, France (7638): Vitesse du vent & gusts: 22.05.2018 11:00:00 - 28.05.2018 11:00:00 (CEST)Bezier-Vias, France (7638): Direction du vent: 22.05.2018 11:00:00 - 28.05.2018 11:00:00 (CEST)Bezier-Vias, France (7638): reduced air pressure: 22.05.2018 11:00:00 - 28.05.2018 11:00:00 (CEST)Bezier-Vias, France (7638): visibility: 22.05.2018 11:00:00 - 28.05.2018 11:00:00 (CEST)Bezier-Vias, France (7638): Quantités de précipitations: 22.05.2018 11:00:00 - 28.05.2018 11:00:00 (CEST)
Date & Time tt [°C] td [°C] ff [km/h] ff [knt] fx [km/h] fx [knt] dd ppp [hPa] vv [km] rr [mm]
28.05.2018 11:00:00 19,3 17,6 20 11 37 20 E 1013,9 6 0,6
28.05.2018 10:00:00 20,5 16,7 20 11 34 18 ENE 1013,7 20 0,0
28.05.2018 09:00:00 19,2 16,2 16 9 25 13 NNE 1013,7 19 0,0
28.05.2018 08:00:00 19,0 16,2 12 6 18 10 NNE 1013,8 32 0,0
28.05.2018 07:00:00 17,5 15,5 10 5 16 9 NNE 1013,9 33 0,0
28.05.2018 06:00:00 16,6 14,6 5 3 7 4 NNE 1013,6 32 0,0
28.05.2018 05:00:00 17,0 14,5 4 2 15 8 ENE 1012,9 35 0,0
28.05.2018 04:00:00 16,7 14,7 13 7 18 10 N 1012,7 34 0,0
28.05.2018 03:00:00 17,1 14,9 5 3 9 5 NNW 1013,4 31 0,0
28.05.2018 02:00:00 17,7 15,3 7 4 14 7 W 1014,0 20 0,0
28.05.2018 01:00:00 18,7 15,4 9 5 14 8 NNE 1014,7 40 0,0
28.05.2018 00:00:00 18,8 15,3 5 3 16 9 NNE 1015,2 39 0,0
27.05.2018 23:00:00 18,8 15,7 11 6 17 9 N 1015,3 35 0,0
27.05.2018 22:00:00 18,5 15,9 2 1 13 7 NW 1015,4 18 0,0
27.05.2018 21:00:00 18,7 15,9 10 5 15 8 N 1014,6 29 0,0
27.05.2018 20:00:00 19,7 16,9 4 2 17 9 N 1013,7 19 0,0
27.05.2018 19:00:00 20,3 16,5 2 1 10 5 E 1013,0 20 0,0
27.05.2018 18:00:00 20,2 17,0 5 3 20 11 NE 1013,8 19 0,2
27.05.2018 17:00:00 20,7 16,5 13 7 23 12 NNE 1013,9 32 0,0
27.05.2018 16:00:00 20,9 16,5 10 5 16 9 SE 1014,9 28 0,0
27.05.2018 15:00:00 20,5 16,9 7 4 26 14 SSW 1015,0 20 0,0
27.05.2018 14:00:00 21,4 16,1 14 8 39 21 ESE 1015,6 30 0,2
27.05.2018 13:00:00 24,3 15,8 22 12 39 21 ESE 1015,2 51 0,0
27.05.2018 12:00:00 25,2 14,6 18 10 38 21 E 1015,3 20 0,0
27.05.2018 11:00:00 24,3 14,7 19 11 29 16 E 1015,5 60 0,0
27.05.2018 10:00:00 22,3 14,2 10 6 19 11 ENE 1015,5 44 0,0
27.05.2018 09:00:00 20,0 13,9 11 6 20 11 NNE 1015,2 40 0,0
27.05.2018 08:00:00 18,5 13,4 14 8 21 12 NNE 1015,1 38 0,0
27.05.2018 07:00:00 16,4 13,1 10 5 18 10 N 1015,7 34 0,0
27.05.2018 06:00:00 16,0 13,5 10 6 19 10 NNE 1015,3 20 0,0
27.05.2018 05:00:00 15,9 13,4 12 7 16 9 N 1015,3 27 0,0
27.05.2018 04:00:00 16,1 13,6 10 5 18 10 NE 1015,7 20 0,0
27.05.2018 03:00:00 16,7 14,2 8 5 15 8 NNE 1016,4 20 0,0
27.05.2018 02:00:00 17,4 15,0 10 6 14 7 N 1017,3 19 0,0
27.05.2018 01:00:00 17,8 15,2 12 6 19 10 NE 1017,1 18 0,0
27.05.2018 00:00:00 17,7 15,3 11 6 15 8 NNE 1017,3 15 0,0
26.05.2018 23:00:00 18,9 15,6 10 6 23 13 ENE 1017,2 18 0,0
26.05.2018 22:00:00 19,3 15,6 10 5 22 12 ESE 1016,7 19 0,0
26.05.2018 21:00:00 20,3 15,1 12 6 24 13 ESE 1016,3 18 0,0
26.05.2018 20:00:00 22,2 13,8 12 7 28 15 ESE 1016,0 38 0,0
26.05.2018 19:00:00 23,1 13,8 15 8 28 15 SE 1016,1 34 0,0
26.05.2018 18:00:00 23,4 13,8 15 8 35 19 SE 1016,1 28 0,0
26.05.2018 17:00:00 24,6 13,2 16 9 33 18 SE 1016,6 28 0,0
26.05.2018 16:00:00 24,2 10,5 16 9 35 19 SE 1016,7 31 0,0
26.05.2018 15:00:00 24,7 11,6 16 9 30 16 ESE 1016,8 33 0,0
26.05.2018 14:00:00 24,4 10,7 16 9 35 19 SSE 1017,0 36 0,0
26.05.2018 13:00:00 24,5 12,8 19 10 37 20 E 1017,6 34 0,0
26.05.2018 12:00:00 23,9 15,7 24 13 37 20 E 1017,7 34 0,0
26.05.2018 11:00:00 22,5 15,1 23 12 35 19 E 1017,5 40 0,0
26.05.2018 10:00:00 20,2 15,6 9 5 19 10 NNE 1018,0 38 0,0
26.05.2018 09:00:00 18,9 15,2 3 2 32 17 N 1017,6 43 0,0
26.05.2018 08:00:00 18,3 14,8 22 12 36 19 ESE 1016,0 40 0,0
26.05.2018 07:00:00 17,9 15,7 23 13 35 19 ESE 1016,2 17 0,2
26.05.2018 06:00:00 17,1 14,6 11 6 23 12 E 1016,8 27 0,0
26.05.2018 05:00:00 17,1 13,6 9 5 21 11 NE 1017,1 35 0,0
26.05.2018 04:00:00 16,0 12,5 3 2 18 10 NE 1017,8 39 0,0
26.05.2018 03:00:00 15,9 12,8 11 6 16 9 NE 1016,2 34 0,0
26.05.2018 02:00:00 15,4 12,5 9 5 14 7 NNE 1016,3 26 0,0
26.05.2018 01:00:00 16,7 13,4 12 7 18 10 NE 1016,5 28 0,0
26.05.2018 00:00:00 16,8 13,5 9 5 11 6 NE 1016,1 27 0,0
25.05.2018 23:00:00 17,2 13,5 11 6 12 6 ENE 1016,1 30 0,0
25.05.2018 22:00:00 17,8 13,9 8 5 10 6 NE 1015,8 18 0,0
25.05.2018 21:00:00 18,9 13,7 6 3 12 6 ENE 1015,6 40 0,0
25.05.2018 20:00:00 20,1 13,3 8 5 18 10 E 1015,1 42 0,0
25.05.2018 19:00:00 20,8 12,2 11 6 21 11 SE 1015,2 52 0,0
25.05.2018 18:00:00 21,4 11,7 10 5 23 12 SE 1015,5 47 0,0
25.05.2018 17:00:00 22,2 11,9 11 6 27 14 SSE 1015,9 43 0,0
25.05.2018 16:00:00 22,0 9,8 11 6 35 19 SE 1016,3 53 0,0
25.05.2018 15:00:00 22,9 8,9 14 8 26 14 ESE 1016,7 38 0,0
25.05.2018 14:00:00 23,9 9,5 12 7 23 12 S 1017,2 55 0,0
25.05.2018 13:00:00 22,8 13,0 10 6 23 12 SE 1016,9 60 0,0
25.05.2018 12:00:00 22,5 14,9 17 9 30 16 E 1017,0 14 0,0
25.05.2018 11:00:00 21,3 15,4 13 7 27 15 E 1017,2 18 0,0
25.05.2018 10:00:00 20,0 16,4 12 7 24 13 E 1017,1 13 0,0
25.05.2018 09:00:00 17,8 16,5 9 5 20 11 NE 1016,9 7 0,0
25.05.2018 08:00:00 16,2 15,4 10 5 16 9 NE 1016,7 4,9 0,0
25.05.2018 07:00:00 14,9 14,1 8 5 13 7 NNE 1016,5 3,7 0,0
25.05.2018 06:00:00 14,4 13,6 6 3 13 7 NE 1016,3 3,5 0,0
25.05.2018 05:00:00 14,8 14,0 9 5 15 8 NNE 1016,3 3,6 0,0
25.05.2018 04:00:00 15,4 14,6 10 6 16 8 NNE 1016,5 3,9 0,2
25.05.2018 03:00:00 15,3 14,5 10 6 15 8 NNE 1017,0 3,4 0,0
25.05.2018 02:00:00 15,6 14,6 11 6 16 8 NNE 1017,0 3,1 0,0
25.05.2018 01:00:00 16,4 15,4 8 4 12 6 NE 1017,4 3,7 0,0
25.05.2018 00:00:00 16,4 15,3 9 5 11 6 NE 1017,5 4,1 0,0
24.05.2018 23:00:00 16,8 15,3 8 4 10 5 E 1017,6 6 0,0
24.05.2018 22:00:00 17,1 15,1 8 4 13 7 E 1017,4 7 0,0
24.05.2018 21:00:00 18,7 15,2 9 5 17 9 E 1017,0 17 0,0
24.05.2018 20:00:00 19,9 15,5 8 5 20 11 SE 1016,9 20 0,0
24.05.2018 19:00:00 20,3 16,1 13 7 23 13 SE 1016,8 16 0,0
24.05.2018 18:00:00 20,6 16,2 12 6 23 13 ESE 1016,8 17 0,0
24.05.2018 17:00:00 21,0 15,5 12 7 25 14 SSE 1017,0 15 0,0
24.05.2018 16:00:00 21,0 15,5 12 6 26 14 E 1017,2 18 0,0
24.05.2018 15:00:00 20,6 15,4 12 6 24 13 SE 1017,5 17 0,0
24.05.2018 14:00:00 20,6 15,6 15 8 33 18 ESE 1017,8 18 0,0
24.05.2018 13:00:00 20,2 16,0 18 10 30 16 E 1018,0 14 0,0
24.05.2018 12:00:00 20,6 15,2 19 10 31 17 E 1018,0 17 0,0
24.05.2018 11:00:00 20,0 15,8 17 9 26 14 E 1017,9 17 0,0
24.05.2018 10:00:00 19,9 15,7 16 9 26 14 ENE 1018,1 19 0,0
24.05.2018 09:00:00 19,2 16,6 15 8 23 12 ENE 1018,0 12 0,0
24.05.2018 08:00:00 17,0 15,3 12 7 19 10 NE 1017,7 9 0,0
24.05.2018 07:00:00 16,0 14,7 11 6 19 11 NNE 1017,5 11 0,0
24.05.2018 06:00:00 15,6 14,3 12 7 17 9 NNE 1017,2 10 0,0
24.05.2018 05:00:00 16,0 14,7 9 5 14 8 NNE 1017,4 11 0,0
24.05.2018 04:00:00 16,0 14,5 10 5 18 10 NE 1017,1 9 0,0
24.05.2018 03:00:00 15,7 13,9 10 5 14 8 NE 1017,4 12 0,0
24.05.2018 02:00:00 16,7 14,7 12 6 19 11 NE 1017,5 14 0,0
24.05.2018 01:00:00 17,1 14,9 11 6 17 9 NE 1017,7 16 0,0
24.05.2018 00:00:00 17,3 14,8 3 2 11 6 ENE 1018,2 22 0,0
23.05.2018 23:00:00 16,8 14,1 5 3 11 6 NE 1018,1 21 0,0
23.05.2018 22:00:00 17,7 14,0 5 3 8 5 NNE 1018,1 26 0,0
23.05.2018 21:00:00 19,2 14,5 4 2 16 9 ESE 1017,6 29 0,0
23.05.2018 20:00:00 20,3 14,4 10 5 19 11 SSE 1016,9 35 0,0
23.05.2018 19:00:00 21,8 13,4 10 6 22 12 S 1016,7 34 0,0
23.05.2018 18:00:00 22,2 13,0 11 6 23 12 SSE 1017,0 21 0,0
23.05.2018 17:00:00 21,7 14,6 15 8 27 14 ESE 1017,0 18 0,0
23.05.2018 16:00:00 22,0 15,4 14 7 27 14 SSE 1016,6 19 0,0
23.05.2018 15:00:00 21,6 15,4 14 8 24 13 S 1016,9 19 0,0
23.05.2018 14:00:00 22,3 15,4 14 7 21 11 S 1017,1 19 0,0
23.05.2018 13:00:00 21,8 15,9 10 5 21 11 SE 1017,3 19 0,0
23.05.2018 12:00:00 21,2 16,4 10 6 21 11 SE 1017,5 18 0,0
23.05.2018 11:00:00 20,9 16,1 8 4 16 8 SSW 1017,4 19 0,0
23.05.2018 10:00:00 18,9 16,1 3 2 10 5 SSW 1017,4 17 0,0
23.05.2018 09:00:00 17,0 16,0 7 4 12 6 NNW 1017,6 17 0,0
23.05.2018 08:00:00 14,7 13,9 4 2 6 4 NNW 1017,1 13 0,0
23.05.2018 07:00:00 13,5 12,7 3 2 7 4 WSW 1016,6 6 0,0
23.05.2018 06:00:00 13,5 12,7 2 1 6 3 NE 1016,1 4,6 0,0
23.05.2018 05:00:00 13,8 13,0 2 1 9 5 NNW 1016,0 8 0,0
23.05.2018 04:00:00 14,1 13,3 3 1 10 5 WNW 1016,2 7 0,0
23.05.2018 03:00:00 14,3 13,3 6 3 11 6 WNW 1016,2 4,7 0,0
23.05.2018 02:00:00 15,0 14,0 6 3 12 7 N 1016,1 4,9 0,0
23.05.2018 01:00:00 15,3 14,3 8 4 12 7 N 1016,3 3,5 0,0
23.05.2018 00:00:00 15,7 14,6 4 2 8 4 N 1016,1 4,3 0,0
22.05.2018 23:00:00 16,8 15,3 4 2 10 6 NE 1016,1 10 0,0
22.05.2018 22:00:00 17,7 16,2 6 4 14 8 ENE 1015,6 13 0,0
22.05.2018 21:00:00 18,3 16,5 7 4 20 11 NE 1014,8 16 0,0
22.05.2018 20:00:00 18,9 16,7 11 6 21 11 ENE 1014,2 18 0,8
22.05.2018 19:00:00 20,1 14,7 14 8 36 19 NE 1013,9 28 0,0
22.05.2018 18:00:00 21,1 15,0 19 10 38 20 S 1012,9 9 0,0
22.05.2018 17:00:00 21,2 15,3 22 12 34 18 S 1013,0 18 0,0
22.05.2018 16:00:00 23,0 14,8 14 8 22 12 S 1012,9 52 0,0
22.05.2018 15:00:00 21,0 16,0 13 7 32 17 ESE 1013,0 60 0,4
22.05.2018 14:00:00 23,1 10,2 18 10 29 16 NW 1012,7 19 0,0
22.05.2018 13:00:00 24,9 14,4 11 6 30 16 W 1012,8 28 0,0
22.05.2018 12:00:00 23,5 14,8 11 6 23 12 WSW 1013,1 25 0,0
22.05.2018 11:00:00 21,9 14,8 11 6 22 12 WSW 1013,3 18 0,0

tt = Température de l'air
td = dewpoint
ff = Vitesse du vent
fx = gusts
dd = Direction du vent
ppp = reduced air pressure
vv = visibility
rr = Quantités de précipitations

stations d'obs. à proximité